| time (UTC) | temp F | wind direction | speed MPH | gust MPH | rain 1hr in | rain 24hr in | rain mn in | humidity % | barometer mb |
| 20260502163050 | 66 | 12 | 6.0 | 11.0 | 0.00 | 0.00 | 0.00 | 65 | 1011.3 |
| 20260502161552 | 66 | 53 | 4.0 | 9.0 | 0.00 | 0.00 | 0.00 | 66 | 1011.3 |
| 20260502151539 | 66 | 40 | 5.0 | 9.0 | 0.00 | 0.00 | 0.00 | 67 | 1011.8 |
| 20260502123019 | 68 | 20 | 6.0 | 18.0 | 0.00 | 0.00 | 0.00 | 61 | 1013.1 |
| 20260502121513 | 69 | 4 | 7.0 | 16.0 | 0.00 | 0.00 | 0.00 | 59 | 1013.3 |
| 20260502114511 | 69 | 336 | 5.0 | 11.0 | 0.00 | 0.00 | 0.00 | 57 | 1013.5 |
| 20260502113016 | 69 | 32 | 4.0 | 9.0 | 0.00 | 0.00 | 0.00 | 57 | 1013.4 |
| 20260502111510 | 69 | 332 | 4.0 | 9.0 | 0.00 | 0.00 | 0.00 | 57 | 1013.5 |
| 20260502110010 | 68 | 339 | 4.0 | 9.0 | 0.00 | 0.00 | 0.00 | 56 | 1013.5 |
| 20260502104528 | 68 | 51 | 1.0 | 4.0 | 0.00 | 0.00 | 0.00 | 55 | 1013.3 |
| 20260502103008 | 69 | 342 | 0.0 | 2.0 | 0.00 | 0.00 | 0.00 | 54 | 1013.4 |
| 20260502101508 | 69 | 333 | 1.0 | 5.0 | 0.00 | 0.00 | 0.00 | 53 | 1013.5 |
| 20260502091511 | 71 | 354 | 4.0 | 9.0 | 0.00 | 0.00 | 0.00 | 50 | 1013.7 |
| 20260502070101 | 74 | 20 | 11.0 | 19.0 | 0.00 | 0.00 | 0.00 | 45 | 1013.1 |
| 20260502064608 | 74 | 352 | 6.0 | 12.0 | 0.00 | 0.00 | 0.00 | 45 | 1013.0 |
| 20260502063058 | 74 | 359 | 7.0 | 17.0 | 0.00 | 0.00 | 0.00 | 44 | 1013.0 |
| 20260502061558 | 75 | 34 | 8.0 | 17.0 | 0.00 | 0.00 | 0.00 | 43 | 1012.9 |
| 20260502060100 | 76 | 23 | 11.0 | 21.0 | 0.00 | 0.00 | 0.00 | 41 | 1012.9 |
| 20260502054556 | 77 | 91 | 8.0 | 21.0 | 0.00 | 0.00 | 0.00 | 40 | 1012.9 |
| 20260502053055 | 77 | 19 | 14.0 | 23.0 | 0.00 | 0.00 | 0.00 | 40 | 1012.9 |
| 20260502051632 | 76 | 12 | 9.0 | 22.0 | 0.00 | 0.00 | 0.00 | 40 | 1012.9 |
| 20260502050051 | 76 | 348 | 7.0 | 19.0 | 0.00 | 0.00 | 0.00 | 40 | 1012.8 |
| 20260502044549 | 76 | 46 | 4.0 | 14.0 | 0.00 | 0.00 | 0.00 | 42 | 1012.9 |
| 20260502043048 | 75 | 96 | 2.0 | 12.0 | 0.00 | 0.00 | 0.00 | 43 | 1013.0 |
| 20260502041543 | 75 | 6 | 7.0 | 19.0 | 0.00 | 0.00 | 0.00 | 43 | 1013.3 |
| 20260502040040 | 74 | 82 | 3.0 | 8.0 | 0.00 | 0.00 | 0.00 | 45 | 1013.4 |
| 20260502034545 | 74 | 117 | 4.0 | 12.0 | 0.00 | 0.00 | 0.00 | 47 | 1013.6 |
| 20260502033048 | 73 | 70 | 3.0 | 9.0 | 0.00 | 0.00 | 0.00 | 46 | 1013.9 |
| 20260502031535 | 72 | 52 | 5.0 | 14.0 | 0.00 | 0.00 | 0.00 | 47 | 1014.3 |
| 20260502030027 | 71 | 352 | 5.0 | 9.0 | 0.00 | 0.00 | 0.00 | 49 | 1014.6 |
| 20260502024530 | 71 | 68 | 3.0 | 10.0 | 0.00 | 0.00 | 0.00 | 50 | 1014.9 |
| 20260502023027 | 71 | 84 | 4.0 | 16.0 | 0.00 | 0.00 | 0.00 | 50 | 1015.2 |
| 20260502021520 | 71 | 86 | 4.0 | 14.0 | 0.00 | 0.00 | 0.00 | 50 | 1015.5 |
| 20260502020017 | 71 | 79 | 2.0 | 11.0 | 0.00 | 0.00 | 0.00 | 49 | 1015.9 |
| 20260502014523 | 71 | 89 | 5.0 | 16.0 | 0.00 | 0.00 | 0.00 | 49 | 1016.0 |
| 20260502013014 | 70 | 40 | 7.0 | 15.0 | 0.00 | 0.00 | 0.00 | 49 | 1016.4 |
| 20260502011516 | 70 | 356 | 5.0 | 17.0 | 0.00 | 0.00 | 0.00 | 49 | 1016.5 |
| 20260502010014 | 70 | 13 | 4.0 | 18.0 | 0.00 | 0.00 | 0.00 | 50 | 1016.6 |
| 20260502004509 | 69 | 30 | 7.0 | 13.0 | 0.00 | 0.00 | 0.00 | 50 | 1016.8 |
| 20260502003016 | 69 | 345 | 4.0 | 12.0 | 0.00 | 0.00 | 0.00 | 50 | 1017.0 |
| 20260502001506 | 69 | 25 | 7.0 | 16.0 | 0.00 | 0.00 | 0.00 | 51 | 1017.1 |
| 20260502000004 | 68 | 20 | 5.0 | 14.0 | 0.00 | 0.00 | 0.00 | 51 | 1017.3 |
| 20260501234504 | 68 | 6 | 6.0 | 13.0 | 0.00 | 0.00 | 0.00 | 52 | 1017.4 |
| 20260501233003 | 68 | 14 | 6.0 | 15.0 | 0.00 | 0.00 | 0.00 | 52 | 1017.7 |
| 20260501231501 | 68 | 32 | 8.0 | 14.0 | 0.00 | 0.00 | 0.00 | 52 | 1017.7 |
| 20260501230109 | 67 | 13 | 7.0 | 14.0 | 0.00 | 0.00 | 0.00 | 53 | 1017.8 |
| 20260501224559 | 67 | 30 | 6.0 | 13.0 | 0.00 | 0.00 | 0.00 | 54 | 1017.7 |
| 20260501223059 | 66 | 52 | 5.0 | 12.0 | 0.00 | 0.00 | 0.00 | 55 | 1017.7 |
| 20260501221559 | 65 | 23 | 7.0 | 16.0 | 0.00 | 0.00 | 0.00 | 56 | 1017.7 |
| 20260501220057 | 65 | 8 | 5.0 | 13.0 | 0.00 | 0.00 | 0.00 | 56 | 1017.7 |
| 20260501214607 | 65 | 1 | 5.0 | 13.0 | 0.00 | 0.00 | 0.00 | 56 | 1017.6 |
| 20260501213102 | 65 | 53 | 7.0 | 12.0 | 0.00 | 0.00 | 0.00 | 56 | 1017.5 |
| 20260501211556 | 65 | 17 | 7.0 | 17.0 | 0.00 | 0.00 | 0.00 | 55 | 1017.3 |
| 20260501210055 | 64 | 26 | 3.0 | 9.0 | 0.00 | 0.00 | 0.00 | 57 | 1017.1 |
| 20260501204554 | 65 | 83 | 1.0 | 9.0 | 0.00 | 0.00 | 0.00 | 56 | 1017.1 |
| 20260501203053 | 64 | 357 | 5.0 | 11.0 | 0.00 | 0.00 | 0.00 | 57 | 1017.0 |
| 20260501201553 | 64 | 80 | 5.0 | 11.0 | 0.00 | 0.00 | 0.00 | 57 | 1017.0 |
| 20260501200050 | 62 | 54 | 4.0 | 10.0 | 0.00 | 0.00 | 0.00 | 61 | 1016.9 |
| 20260501194558 | 61 | 41 | 2.0 | 7.0 | 0.00 | 0.00 | 0.00 | 64 | 1017.0 |
| 20260501193047 | 61 | 65 | 1.0 | 5.0 | 0.00 | 0.00 | 0.00 | 64 | 1017.0 |
| 20260501191546 | 61 | 101 | 1.0 | 4.0 | 0.00 | 0.00 | 0.00 | 64 | 1017.1 |
| 20260501190047 | 61 | 65 | 1.0 | 5.0 | 0.00 | 0.00 | 0.00 | 64 | 1017.2 |
| 20260501184543 | 61 | 49 | 1.0 | 5.0 | 0.00 | 0.00 | 0.00 | 64 | 1017.2 |
| 20260501184513 | 61 | 66 | 2.0 | 5.0 | 0.00 | 0.00 | 0.00 | 64 | 1017.2 |
| 20260501183040 | 61 | 60 | 2.0 | 5.0 | 0.00 | 0.00 | 0.00 | 65 | 1017.4 |
| 20260501181541 | 61 | 58 | 1.0 | 6.0 | 0.00 | 0.00 | 0.00 | 65 | 1017.4 |
| 20260501180041 | 61 | 89 | 1.0 | 5.0 | 0.00 | 0.00 | 0.00 | 64 | 1017.5 |
| 20260501174534 | 62 | 48 | 1.0 | 4.0 | 0.00 | 0.00 | 0.00 | 64 | 1017.6 |
| 20260501173037 | 62 | 73 | 1.0 | 5.0 | 0.00 | 0.00 | 0.00 | 63 | 1017.7 |
| 20260501171536 | 63 | 71 | 2.0 | 7.0 | 0.00 | 0.00 | 0.00 | 61 | 1017.8 |